Weather History for Lancaster, CA

Change the Weather History Date:

Sunday, August 25, 2013

  Actual Average Record
Temperature  
Mean Temperature 77 °F 80 °F  
Max Temperature 96 °F 97 °F 107 °F (2010)
Min Temperature 57 °F 63 °F 48 °F (1949)
Degree Days  
Heating Degree Days 0    
Month to date heating degree days 0  
Since 1 June heating degree days 0  
Since 1 July heating degree days 0  
Cooling Degree Days 12    
Month to date cooling degree days 414  
Year to date cooling degree days 1766  
Since 1 June cooling degree days 1508  
Growing Degree Days 26 (Base 50)    
Moisture  
Dew Point 30 °F    
Average Humidity 22    
Maximum Humidity 36    
Minimum Humidity 8    
Precipitation  
Precipitation 0.00 in 0.01 in 0.01 in (1967)
Month to date precipitation T 0.08  
Year to date precipitation 1.12 5.08  
Since 1 July precipitation 0.02 0.17  
Snow  
Snow 0.00 in - 0.00 in ()
Month to date snowfall 0.0  
Since 1 June snowfall 0.0  
Since 1 July snowfall 0.0  
Snow Depth 0.00 in    
Sea Level Pressure  
Sea Level Pressure 29.90 in    
Wind  
Wind Speed 8 mph (WSW)    
Max Wind Speed 23 mph    
Max Gust Speed 32 mph    
Visibility 10 miles    
Events      
T = Trace of Precipitation, MM = Missing Value Source: NWS Daily Summary

Daily Weather History Graph

Daily Weather History Graph

Search for Another Location

Airport:

Trip Planner

Search our weather history database for the weather conditions in past years. The results will help you decide how hot, cold, wet, or windy it might be!

Date:

Astronomy

Aug. 25, 2013 Rise Set
Actual Time 6:20 AM PDT 7:28 PM PDT
Civil Twilight 5:54 AM PDT 7:54 PM PDT
Nautical Twilight 5:23 AM PDT 8:25 PM PDT
Astronomical Twilight 4:51 AM PDT 8:57 PM PDT
Moon 10:17 PM PDT (8/25) 11:12 AM PDT (8/25)
Length of Visible Light 13h 59m
Length of Day
13h 07m
Waning Gibbous, 75% of the Moon is Illuminated
Aug 25
Waning Gibbous
Aug 28
Last Quarter
Sep 5
New
Sep 12
First Quarter
Sep 19
Full

Hourly Weather History & Observations

Time (PDT) Temp. Dew Point Humidity Pressure Visibility Wind Dir Wind Speed Gust Speed Precip Events Conditions
12:56 AM 70.0 °F 33.1 °F 26% 29.88 in 10.0 mi WSW 6.9 mph - N/A   Clear
1:56 AM 66.0 °F 28.9 °F 25% 29.87 in 10.0 mi West 9.2 mph - N/A   Clear
2:56 AM 63.0 °F 34.0 °F 34% 29.87 in 10.0 mi West 8.1 mph - N/A   Clear
3:56 AM 64.9 °F 30.0 °F 27% 29.88 in 10.0 mi Calm Calm - N/A   Clear
4:56 AM 57.0 °F 30.0 °F 36% 29.91 in 10.0 mi North 4.6 mph - N/A   Clear
5:56 AM 60.1 °F 30.9 °F 33% 29.91 in 10.0 mi South 3.5 mph - N/A   Clear
6:56 AM 57.9 °F 28.9 °F 33% 29.94 in 10.0 mi Calm Calm - N/A   Clear
7:56 AM 66.0 °F 30.9 °F 27% 29.95 in 10.0 mi Calm Calm - N/A   Clear
8:56 AM 73.9 °F 30.0 °F 20% 29.95 in 10.0 mi ESE 4.6 mph - N/A   Clear
9:56 AM 79.0 °F 30.9 °F 17% 29.95 in 10.0 mi Calm Calm - N/A   Clear
10:56 AM 84.9 °F 32.0 °F 15% 29.94 in 10.0 mi Calm Calm - N/A   Clear
11:56 AM 88.0 °F 42.1 °F 20% 29.92 in 10.0 mi Calm Calm - N/A   Clear
12:56 PM 91.9 °F 37.0 °F 15% 29.89 in 10.0 mi WSW 6.9 mph - N/A   Clear
1:56 PM 91.9 °F 37.0 °F 15% 29.88 in 10.0 mi Variable 5.8 mph - N/A   Clear
2:56 PM 95.0 °F 33.1 °F 11% 29.86 in 10.0 mi West 21.9 mph 27.6 mph N/A   Clear
3:56 PM 95.0 °F 25.0 °F 8% 29.85 in 10.0 mi WSW 18.4 mph 26.5 mph N/A   Clear
4:56 PM 93.0 °F 24.1 °F 8% 29.85 in 10.0 mi SW 16.1 mph 25.3 mph N/A   Clear
5:56 PM 91.0 °F 28.0 °F 10% 29.85 in 10.0 mi SW 19.6 mph 26.5 mph N/A   Clear
6:56 PM 88.0 °F 24.1 °F 10% 29.87 in 10.0 mi WSW 17.3 mph - N/A   Clear
7:56 PM 82.0 °F 28.0 °F 14% 29.90 in 10.0 mi WSW 11.5 mph - N/A   Clear
8:56 PM 79.0 °F 32.0 °F 18% 29.92 in 10.0 mi West 15.0 mph - N/A   Clear
9:56 PM 77.0 °F 27.0 °F 16% 29.93 in 10.0 mi SSW 4.6 mph - N/A   Clear
10:56 PM 75.0 °F 28.0 °F 18% 29.93 in 10.0 mi WNW 10.4 mph - N/A   Clear
11:56 PM 75.9 °F 24.1 °F 15% 29.94 in 10.0 mi SSW 3.5 mph - N/A   Clear